Location: Laverne
(36.7100°N, 99.8930°W)
Time: 12:37:11
(UTC-06:00)

Cosmos 2369 Rocket - Pass Details

Date: 19 October 2017
Orbit: 830 x 851 km, 71.0° (Epoch: 21 November)

Event Time Altitude Azimuth Distance (km) Brightness Sun altitude
Exits shadow 06:10:28 12° 331° (NNW) 2,312 4.2 -20.8°
Drops below altitude 10° 06:11:26 10° 340° (NNW) 2,469 4.5 -20.7°
Sets 06:15:09 0° 5° (N) 3,403 5.4 -19.9°
